Theta_e
289 289 288 287 287 286 287 286 285 285 285 285 285 285 285 284 284 283 283 283 282 282 282 281 280 279 278 278 279 278 276 277 273 274 270 267 270 270 275 276 276 277 276
290 289 288 287 286 286 286 286 285 285 285 285 285 285 284 284 284 283 283 283 282 282 282 280 279 279 277 277 277 277 276 276 276 270 268 272 269 266 268 269 275 278 273
289 288 287 287 286 286 286 286 285 285 285 284 285 284 284 283 283 283 283 283 282 282 282 280 280 279 278 277 276 276 276 278 275 275 275 273 272 271 274 273 272 271 277
289 288 288 288 287 288 287 286 285 285 284 284 285 284 284 283 284 284 283 283 282 282 282 282 280 279 279 278 277 277 278 277 277 274 273 274 272 273 272 273 274 274 275
289 289 289 289 288 287 285 285 285 284 285 285 284 284 284 284 284 283 284 283 282 282 282 282 281 280 281 280 278 278 278 276 277 277 275 272 272 273 272 273 274 274 274
290 289 290 288 287 287 286 285 285 284 284 284 284 284 283 285 287 288 285 283 283 283 282 282 282 280 280 283 283 282 280 279 278 277 275 274 272 271 273 273 274 273 272
290 290 289 288 287 287 286 285 284 284 284 284 284 284 284 284 288 289 288 284 283 283 283 282 281 280 280 281 284 284 283 284 283 279 276 275 274 274 274 275 274 274 273
290 290 289 287 287 285 284 284 284 284 284 283 283 284 284 284 289 290 288 283 283 283 283 283 282 281 280 280 280 281 280 280 281 281 279 278 277 277 277 276 276 276 276
290 289 288 287 286 284 284 284 284 284 283 283 284 283 284 284 289 290 289 283 283 283 283 282 283 282 282 283 279 279 278 279 282 284 284 285 285 285 284 278 276 272 272
290 289 288 286 287 285 285 284 284 284 284 284 283 283 283 283 288 290 289 284 282 282 282 283 283 282 284 285 281 279 279 280 280 279 279 280 280 279 281 277 277 271 271
288 288 287 286 286 286 284 283 283 283 282 282 282 282 282 283 285 289 290 284 283 282 282 282 283 285 285 286 285 282 282 281 282 281 280 279 279 279 278 278 277 275 271
287 287 286 285 285 285 283 283 282 282 281 280 281 280 281 282 284 289 290 286 286 283 282 283 283 285 286 286 285 286 286 285 280 279 279 279 278 276 276 275 276 276 275
283 283 280 281 283 283 282 281 281 281 281 280 280 280 280 281 283 288 290 287 287 284 284 284 285 285 286 286 286 286 282 281 280 278 277 277 276 275 273 272 270 269 267
279 279 277 278 278 278 281 282 281 281 280 280 280 279 280 280 281 284 286 286 285 284 285 284 284 284 285 284 281 283 282 281 280 279 277 276 275 272 273 270 274 275 270
276 276 277 276 275 276 278 279 281 281 283 281 282 282 280 280 282 285 285 284 284 284 283 282 281 281 281 281 280 280 279 279 278 277 275 275 274 273 272 269 273 276 275
281 280 280 279 276 276 279 280 285 284 286 286 286 284 283 284 285 286 286 286 287 287 282 281 280 281 280 280 279 278 277 277 277 276 275 274 273 277 276 274 273 274 272
282 282 281 280 280 279 280 281 281 284 286 286 286 286 286 285 286 286 287 287 287 286 281 281 281 280 279 279 278 277 276 276 275 275 275 272 271 276 277 268 276 276 275
281 282 281 281 280 281 281 282 282 282 281 282 286 286 286 286 286 287 287 286 283 284 281 280 280 280 279 278 277 276 275 276 277 278 279 278 278 277 277 276 276 275 274
282 282 281 281 281 282 281 282 282 282 282 281 282 284 285 286 286 287 287 283 282 281 280 279 279 278 277 277 277 276 276 278 279 278 278 277 277 277 277 277 276 276 275
283 282 280 279 278 279 280 281 281 281 281 281 281 282 283 284 283 283 281 281 281 279 279 278 277 278 277 278 277 278 275 276 277 277 277 276 276 276 276 276 276 274 267
282 283 283 282 281 281 281 281 281 281 281 280 279 282 284 283 281 280 279 279 278 277 277 277 276 276 276 275 278 276 274 272 274 273 269 270 275 275 275 275 275 274 273
274 274 275 277 280 281 281 281 281 280 280 279 280 283 283 280 279 278 277 276 276 276 277 277 275 276 275 275 274 274 270 268 267 272 267 276 275 276 275 274 274 273 273
276 276 275 275 276 278 279 280 280 279 279 278 278 278 277 276 276 276 276 275 275 275 275 276 274 270 267 268 268 271 270 269 269 270 268 268 276 276 275 274 274 273 273
274 274 272 273 275 275 274 275 276 277 277 277 277 276 275 274 274 274 274 273 274 275 275 275 274 275 274 273 271 268 262 262 262 264 266 275 277 277 276 275 274 274 273
269 269 270 271 270 272 275 274 274 274 275 276 276 273 272 272 272 272 271 270 271 272 273 275 275 275 274 273 270 261 260 265 263 258 268 271 272 270 272 275 275 274 273
265 265 265 266 268 271 270 271 273 274 273 272 272 271 272 271 271 270 269 268 267 266 267 265 264 264 263 262 261 261 263 266 260 259 264 266 262 260 261 263 269 271 270
Wind_Speed
11 10 10 10 10 8 9 9 9 6 8 8 8 7 7 7 6 6 6 6 6 5 4 5 5 4 3 2 2 1 2 2 2 4 2 2 4 3 5 3 3 4 4
10 10 11 8 8 10 11 10 8 10 7 9 8 8 7 6 6 6 6 6 6 6 5 5 5 3 4 3 3 3 2 2 3 3 2 3 2 3 4 4 4 4 4
7 10 9 10 11 12 12 11 10 9 9 7 7 8 7 7 7 7 7 7 7 6 6 6 6 6 4 3 3 3 2 2 2 2 3 1 3 2 4 3 4 4 3
8 9 10 11 13 12 11 9 10 9 9 9 9 9 8 8 8 7 7 6 6 6 6 6 6 6 6 5 4 4 3 2 2 1 2 2 2 2 1 2 6 3 5
9 11 13 11 10 9 8 9 9 10 10 10 9 8 7 8 7 8 8 7 7 6 6 6 6 6 8 7 4 5 5 3 2 2 2 1 2 3 1 2 3 4 4
9 12 10 9 9 10 10 10 10 10 9 9 10 10 10 7 14 17 11 8 7 7 7 6 5 6 7 10 10 8 8 5 3 2 1 2 3 2 1 2 2 3 4
9 9 9 9 10 10 9 9 10 11 9 10 10 10 11 10 18 18 17 7 7 7 6 5 5 3 5 5 8 8 7 9 6 3 2 3 2 3 1 2 1 1 3
10 10 7 7 9 6 8 11 10 9 11 10 11 11 10 9 19 18 17 8 7 6 6 6 6 6 6 6 5 4 4 4 4 3 5 4 4 3 4 2 2 4 5
8 7 7 7 8 8 10 10 9 9 9 10 9 11 12 9 19 18 15 7 6 6 5 6 5 5 9 11 5 5 4 4 5 9 8 8 9 9 6 2 1 2 3
7 7 7 8 10 11 10 9 7 7 9 8 9 10 11 10 18 19 16 7 7 5 5 5 9 6 9 11 5 4 4 3 3 2 1 2 2 3 4 1 2 2 2
7 6 6 7 10 9 8 7 7 7 5 6 8 6 8 8 11 19 20 8 7 6 5 5 4 11 10 10 10 5 4 3 3 2 1 1 1 2 2 1 1 3 2
7 6 6 6 5 5 7 6 6 8 8 7 6 4 3 5 9 16 19 14 13 7 6 4 4 10 10 10 7 8 10 7 2 2 1 1 1 2 2 2 3 1 3
6 6 3 1 2 4 5 5 5 7 7 7 7 6 6 5 5 15 17 15 14 5 5 6 9 7 8 6 7 9 4 2 2 2 2 1 1 1 3 2 3 2 1
6 5 3 1 1 1 1 4 5 6 5 6 7 7 7 6 6 6 8 9 12 7 10 6 8 7 7 5 2 4 3 3 3 2 2 2 2 1 1 1 1 3 3
4 3 2 0 1 1 1 2 3 3 7 7 7 7 9 9 8 12 12 8 7 9 8 5 3 3 4 3 3 3 2 3 2 2 2 2 1 1 1 1 0 1 3
4 3 2 1 0 1 2 2 3 5 8 7 8 8 3 11 19 19 18 17 17 18 5 5 5 5 4 4 4 3 2 3 2 2 2 2 2 1 2 1 1 1 2
3 2 1 1 1 2 1 2 3 5 10 13 15 15 15 17 21 22 21 20 18 15 4 5 5 5 4 4 4 2 3 2 2 2 2 2 3 2 2 0 1 3 4
3 1 1 2 2 3 3 3 3 4 4 3 11 12 20 24 24 22 19 15 9 7 4 5 5 5 4 4 4 3 2 3 2 3 3 3 2 2 1 1 1 2 3
3 2 1 2 1 2 3 4 4 3 3 3 3 3 7 14 15 16 18 6 7 5 4 4 4 4 4 4 3 3 3 3 3 3 3 2 2 1 1 0 2 2 3
4 4 3 2 2 2 2 2 2 2 3 3 3 4 5 7 5 7 3 4 5 4 4 4 3 4 4 5 4 4 4 4 3 3 3 3 2 1 1 1 1 2 2
3 3 5 4 3 3 3 3 3 3 4 4 4 4 7 5 5 5 4 3 3 3 3 4 3 4 3 4 4 4 4 3 3 3 3 2 3 2 1 1 1 2 3
3 3 3 3 3 4 4 4 3 4 4 4 3 5 10 4 4 4 3 3 3 3 3 4 3 3 3 4 4 4 4 4 3 3 4 3 3 3 2 2 2 3 4
4 5 5 4 3 5 4 4 4 4 4 3 3 4 3 3 3 3 3 3 3 3 3 4 5 4 2 3 3 4 5 5 4 4 3 3 4 3 3 3 3 3 3
5 5 4 3 3 4 4 4 4 5 4 3 3 3 3 3 2 2 3 4 4 3 3 4 4 5 4 3 2 1 1 2 2 3 4 4 5 5 4 3 3 7 7
4 3 3 3 3 3 3 3 2 3 2 2 2 2 2 3 2 2 2 1 1 2 2 3 3 4 3 4 3 2 2 4 4 4 4 5 4 4 3 5 7 7 8
2 1 1 1 1 2 2 2 1 0 1 1 1 1 2 3 3 3 2 1 1 1 2 1 2 4 3 2 2 3 4 5 5 6 5 4 3 3 2 4 5 6 7
Wind_Direction
192 197 199 199 195 183 197 201 201 187 193 198 194 193 195 193 190 184 188 181 187 186 184 195 204 176 179 173 143 123 129 136 164 305 270 280 295 321 320 316 314 318 313
198 195 205 194 184 194 206 202 182 199 188 193 187 192 191 190 183 186 187 182 186 190 193 194 211 185 191 177 168 175 167 162 139 234 287 311 282 308 281 305 323 318 316
182 193 197 198 196 207 208 199 190 189 188 185 180 192 189 186 183 191 188 188 191 192 190 195 201 185 197 184 182 180 178 157 150 157 293 283 286 348 330 319 310 317 290
194 204 212 210 210 211 210 199 192 188 179 183 191 192 187 180 188 186 187 187 192 196 196 198 197 195 192 185 191 196 182 162 166 164 255 273 249 296 287 326 333 321 317
201 206 217 213 207 202 193 193 189 183 190 188 182 186 179 186 191 184 187 190 190 194 197 199 201 194 196 192 170 187 172 171 186 197 243 274 284 340 18 312 285 303 293
218 226 219 204 200 204 199 193 186 187 183 178 187 185 185 196 197 197 188 191 191 193 197 196 193 182 202 199 202 193 189 172 187 197 204 225 273 234 248 289 300 354 334
221 228 215 206 208 207 196 188 197 194 181 191 188 183 192 194 195 197 194 186 190 196 190 181 184 185 188 185 200 199 208 217 205 164 191 211 250 212 195 296 294 280 269
227 227 211 200 213 199 191 200 197 186 189 188 191 192 191 197 195 195 189 179 189 184 183 183 184 172 198 180 177 186 212 223 228 202 207 220 229 232 211 227 276 279 264
261 243 212 192 197 187 203 204 199 188 189 192 188 187 194 196 193 191 180 176 182 181 169 167 175 197 198 193 174 190 209 230 227 232 236 249 263 280 263 168 271 11 312
252 245 218 198 201 201 208 202 194 191 202 190 192 192 191 189 191 189 177 165 171 161 159 172 191 194 211 186 177 191 207 234 203 174 112 35 344 319 339 185 176 177 226
280 249 223 210 212 206 189 177 172 185 167 187 191 184 183 179 186 190 177 169 174 166 173 176 171 208 196 183 189 184 212 197 200 177 88 334 310 1 8 357 201 171 168
289 267 242 212 204 197 187 174 172 169 168 168 165 147 170 169 174 190 182 176 168 164 173 153 161 198 191 189 185 209 230 232 140 124 109 282 52 357 335 331 343 269 227
311 286 272 212 195 177 172 177 164 169 174 175 175 170 170 166 168 183 176 169 168 146 135 157 177 162 158 169 187 223 166 132 158 150 153 163 162 242 301 12 355 339 338
315 316 322 226 187 142 131 172 172 185 184 178 178 177 169 165 164 163 165 156 159 143 146 144 141 147 156 163 179 177 160 173 170 152 160 180 130 123 57 9 42 3 37
327 323 323 276 199 149 102 177 201 210 192 189 203 186 170 177 182 162 151 146 151 149 143 139 146 151 167 156 148 158 158 156 162 162 142 151 177 107 101 358 34 9 43
315 322 302 268 216 116 130 53 230 208 205 196 177 146 86 132 149 153 153 160 159 159 146 161 170 178 176 162 171 161 154 164 176 157 140 137 134 101 112 165 119 96 25
294 295 270 234 180 143 109 116 108 93 116 123 128 134 143 157 160 164 170 168 168 161 167 171 172 163 171 162 157 152 153 179 140 143 138 141 136 152 106 154 99 36 23
310 262 161 161 156 146 144 139 138 146 150 169 177 174 174 171 174 172 167 156 164 168 167 164 168 160 149 152 152 154 154 144 151 142 133 133 129 140 145 133 88 19 6
347 350 61 97 114 131 133 148 155 164 156 132 114 137 171 166 161 160 159 160 164 160 149 145 144 142 145 141 145 139 127 141 143 138 123 121 114 129 174 33 74 24 340
18 26 30 37 50 47 41 85 99 103 107 101 96 102 109 121 126 141 90 108 119 129 142 142 133 129 137 145 142 138 134 136 133 125 138 132 104 63 351 355 312 285 302
50 47 42 47 46 37 43 46 61 79 82 74 73 77 100 98 101 106 108 104 121 127 127 129 136 136 133 136 145 149 146 156 175 141 132 127 147 155 207 287 300 299 310
27 32 32 53 61 62 61 60 61 70 74 85 71 90 95 80 98 109 106 104 95 104 117 131 131 128 151 157 148 148 151 146 140 145 158 166 191 215 223 282 313 321 327
46 43 27 19 48 68 54 63 77 76 77 88 88 99 94 101 104 113 120 114 118 130 143 125 126 114 100 108 117 148 153 179 182 163 159 184 208 217 236 269 289 287 289
36 43 46 39 32 30 61 53 42 61 84 78 59 52 46 45 64 114 124 136 137 123 138 137 129 137 135 133 114 116 125 122 139 179 206 234 236 243 248 249 221 270 273
41 46 52 21 22 35 60 60 72 95 85 104 135 126 98 96 100 116 126 116 119 140 126 116 120 132 150 163 182 209 225 219 197 198 216 230 236 262 259 257 263 265 270
28 56 98 93 124 131 123 121 109 153 168 162 127 155 169 175 168 158 144 131 135 183 176 166 175 181 171 197 224 231 234 227 209 204 197 194 192 230 221 222 251 270 276